DW4553 Weather Reports


Display with metric or nautical units.
time (UTC)temp
F
wind
direction
speed
MPH
gust
MPH
rain 1hr
in
rain 24hr
in
rain mn
in
humidity
%
barometer
mb
20260504174508 74 180 2.0 5.0 0.00 0.00 0.00 43 1017.0
20260504174005 75 137 1.0 3.0 0.00 0.00 0.00 42 1017.0
20260504173502 75 348 1.0 2.0 0.00 0.00 0.00 45 1017.2
20260504172959 75 7 1.0 3.0 0.00 0.00 0.00 46 1017.2
20260504172455 74 349 4.0 6.0 0.00 0.00 0.00 45 1017.3
20260504171952 74 300 4.0 5.0 0.00 0.00 0.00 43 1017.3
20260504171449 74 47 1.0 5.0 0.00 0.00 0.00 44 1017.4
20260504170945 75 72 0.0 2.0 0.00 0.00 0.00 43 1017.6
20260504170442 74 14 2.0 3.0 0.00 0.00 0.00 45 1017.6
20260504160402 71 75 1.0 3.0 0.00 0.00 0.00 47 1018.3
20260504150826 69 191 4.0 6.0 0.00 0.00 0.00 53 1018.8
20260504150322 69 180 1.0 6.0 0.00 0.00 0.00 52 1018.5
20260504141252 64 266 3.0 5.0 0.00 0.00 0.00 58 1019.0
20260504140749 65 211 1.0 3.0 0.00 0.00 0.00 58 1019.1
20260504140244 64 217 3.0 3.0 0.00 0.00 0.00 58 1019.4
20260504130713 58 19 0.0 1.0 0.00 0.00 0.00 73 1019.2
20260504130209 57 9 0.0 1.0 0.00 0.00 0.00 75 1019.1
20260504120133 42 70 0.0 0.0 0.00 0.00 0.00 99 1018.7
20260504110600 40 68 0.0 0.0 0.00 0.00 0.00 99 1018.4
20260504100522 41 68 0.0 0.0 0.00 0.00 0.00 99 1018.1
20260504081916 42 69 0.0 1.0 0.00 0.00 0.00 99 1018.1
20260504081413 42 65 0.0 0.0 0.00 0.00 0.00 99 1018.1
20260504080908 42 63 0.0 1.0 0.00 0.00 0.00 99 1018.1
20260504080406 42 61 0.0 0.0 0.00 0.00 0.00 99 1018.1
20260504070333 42 75 0.0 1.0 0.00 0.00 0.00 99 1018.2
20260504050721 45 26 0.0 1.0 0.00 0.00 0.00 97 1019.2
20260504050218 45 26 0.0 1.0 0.00 0.00 0.00 98 1018.9
20260504045715 45 43 0.0 0.0 0.00 0.00 0.00 98 1019.0
20260504045215 44 81 0.0 0.0 0.00 0.00 0.00 98 1019.1
20260504044714 44 75 0.0 0.0 0.00 0.00 0.00 97 1019.2
20260504044211 44 75 0.0 0.0 0.00 0.00 0.00 97 1019.3
20260504043708 45 75 0.0 0.0 0.00 0.00 0.00 97 1019.1
20260504043204 45 75 0.0 0.0 0.00 0.00 0.00 97 1019.0
20260504042702 45 75 0.0 0.0 0.00 0.00 0.00 97 1019.2
20260504042158 45 75 0.0 0.0 0.00 0.00 0.00 96 1019.2
20260504041654 45 75 0.0 1.0 0.00 0.00 0.00 96 1019.3
20260504041150 46 141 2.0 2.0 0.00 0.00 0.00 95 1019.4
20260504040647 46 43 0.0 0.0 0.00 0.00 0.00 95 1019.3
20260504040144 47 42 0.0 0.0 0.00 0.00 0.00 94 1019.6
20260504035641 47 42 0.0 0.0 0.00 0.00 0.00 94 1019.6
20260504035138 47 43 0.0 1.0 0.00 0.00 0.00 94 1019.6
20260504034635 47 45 0.0 1.0 0.00 0.00 0.00 93 1019.7
20260504034132 47 46 0.0 1.0 0.00 0.00 0.00 93 1019.6
20260504033630 47 48 0.0 0.0 0.00 0.00 0.00 92 1019.5
20260504033127 47 48 0.0 1.0 0.00 0.00 0.00 93 1019.3
20260504032624 47 73 0.0 1.0 0.00 0.00 0.00 93 1019.5
20260504032121 47 74 1.0 1.0 0.00 0.00 0.00 92 1019.2
20260504031618 48 73 0.0 0.0 0.00 0.00 0.00 91 1019.4
20260504031114 48 73 0.0 0.0 0.00 0.00 0.00 89 1019.3
20260504030611 48 73 0.0 0.0 0.00 0.00 0.00 88 1019.2
20260504030108 48 73 0.0 0.0 0.00 0.00 0.00 88 1019.3
20260504025605 48 73 0.0 1.0 0.00 0.00 0.00 91 1019.5
20260504025101 48 74 0.0 1.0 0.00 0.00 0.00 91 1019.3
20260504024559 49 73 0.0 1.0 0.00 0.00 0.00 90 1019.4
20260504024055 49 73 1.0 1.0 0.00 0.00 0.00 89 1019.3
20260504023552 49 38 0.0 0.0 0.00 0.00 0.00 87 1019.3
20260504023048 49 38 0.0 0.0 0.00 0.00 0.00 88 1019.2
20260504022544 49 79 0.0 1.0 0.00 0.00 0.00 89 1019.2
20260504022040 49 80 0.0 0.0 0.00 0.00 0.00 89 1019.0
20260504021538 49 131 1.0 2.0 0.00 0.00 0.00 89 1018.7
20260504021035 50 105 1.0 1.0 0.00 0.00 0.00 87 1018.7
20260504020532 51 302 1.0 1.0 0.00 0.00 0.00 84 1019.0
20260504020028 51 309 0.0 0.0 0.00 0.00 0.00 82 1018.9
20260504015524 52 309 0.0 1.0 0.00 0.00 0.00 81 1019.0
20260504015020 52 309 0.0 1.0 0.00 0.00 0.00 79 1018.8
20260504014517 52 309 0.0 0.0 0.00 0.00 0.00 78 1018.6
20260504014014 52 309 0.0 0.0 0.00 0.00 0.00 80 1018.6
20260504013512 53 309 0.0 0.0 0.00 0.00 0.00 79 1018.6
20260504013009 53 308 1.0 1.0 0.00 0.00 0.00 74 1018.6
20260504012506 53 308 0.0 1.0 0.00 0.00 0.00 76 1018.5
20260504012004 53 308 0.0 0.0 0.00 0.00 0.00 76 1018.5
20260504011500 54 308 0.0 1.0 0.00 0.00 0.00 74 1018.3
20260504010955 55 309 0.0 0.0 0.00 0.00 0.00 71 1018.3
20260504010452 55 309 0.0 1.0 0.00 0.00 0.00 67 1018.3
20260504005948 56 309 0.0 1.0 0.00 0.00 0.00 67 1018.4
20260504005445 57 309 0.0 1.0 0.00 0.00 0.00 66 1018.4
20260504004943 57 308 1.0 1.0 0.00 0.00 0.00 62 1018.2
20260504004440 58 308 1.0 1.0 0.00 0.00 0.00 63 1018.1
20260504003937 59 308 1.0 1.0 0.00 0.00 0.00 61 1018.2
20260504003433 60 308 0.0 0.0 0.00 0.00 0.00 56 1018.0
20260504002930 61 307 0.0 0.0 0.00 0.00 0.00 51 1017.9
20260504002427 62 267 1.0 2.0 0.00 0.00 0.00 48 1017.9
20260504001924 62 323 0.0 1.0 0.00 0.00 0.00 49 1018.0
20260504001422 62 321 1.0 1.0 0.00 0.00 0.00 48 1018.0
20260504000918 63 301 1.0 2.0 0.00 0.00 0.00 48 1017.9
20260504000416 63 358 0.0 1.0 0.00 0.00 0.00 47 1018.1
20260503235913 63 294 1.0 2.0 0.00 0.00 0.00 46 1018.1
20260503235411 64 291 1.0 2.0 0.00 0.00 0.00 45 1017.9
20260503234908 65 335 1.0 2.0 0.00 0.00 0.00 43 1018.2
20260503234405 65 14 1.0 1.0 0.00 0.00 0.00 43 1017.9
20260503233903 65 293 1.0 2.0 0.00 0.00 0.00 42 1018.0
20260503233359 65 326 1.0 1.0 0.00 0.00 0.00 43 1018.0
20260503232855 65 356 1.0 3.0 0.00 0.00 0.00 45 1018.1
20260503232353 66 14 1.0 3.0 0.00 0.00 0.00 45 1018.0
20260503231851 66 23 1.0 5.0 0.00 0.00 0.00 42 1018.1
20260503231347 66 301 3.0 8.0 0.00 0.00 0.00 42 1017.9
20260503230844 66 30 2.0 5.0 0.00 0.00 0.00 45 1018.1
20260503230340 67 226 1.0 2.0 0.00 0.00 0.00 43 1018.3
20260503225839 66 303 2.0 6.0 0.00 0.00 0.00 40 1018.2
20260503225334 67 293 3.0 6.0 0.00 0.00 0.00 40 1018.0
20260503224830 67 6 3.0 5.0 0.00 0.00 0.00 40 1017.9
20260503224328 67 20 1.0 6.0 0.00 0.00 0.00 42 1018.1
20260503223826 68 307 2.0 2.0 0.00 0.00 0.00 41 1018.1
20260503223323 68 111 2.0 3.0 0.00 0.00 0.00 40 1018.1
20260503222818 69 334 1.0 2.0 0.00 0.00 0.00 40 1018.0
20260503222317 69 285 3.0 6.0 0.00 0.00 0.00 40 1018.2
20260503221815 69 269 3.0 5.0 0.00 0.00 0.00 40 1018.3
20260503221313 68 26 3.0 5.0 0.00 0.00 0.00 41 1018.3
20260503220809 69 299 3.0 3.0 0.00 0.00 0.00 37 1018.1
20260503220306 68 23 1.0 5.0 0.00 0.00 0.00 40 1018.4
20260503215803 68 12 1.0 6.0 0.00 0.00 0.00 40 1018.4
20260503215259 69 20 1.0 2.0 0.00 0.00 0.00 38 1018.2
20260503214758 69 39 1.0 2.0 0.00 0.00 0.00 40 1018.4
20260503214254 68 249 2.0 6.0 0.00 0.00 0.00 39 1018.5
20260503213752 68 235 4.0 8.0 0.00 0.00 0.00 36 1018.3
20260503213249 68 311 4.0 6.0 0.00 0.00 0.00 37 1018.4
20260503212746 68 33 3.0 7.0 0.00 0.00 0.00 39 1018.5
20260503212244 68 332 3.0 5.0 0.00 0.00 0.00 42 1018.3
20260503211741 68 267 4.0 6.0 0.00 0.00 0.00 37 1018.7
20260503211237 68 43 2.0 7.0 0.00 0.00 0.00 38 1018.8
20260503210732 69 259 4.0 6.0 0.00 0.00 0.00 38 1018.8
20260503210230 69 321 3.0 5.0 0.00 0.00 0.00 38 1018.7
20260503205726 68 275 4.0 6.0 0.00 0.00 0.00 38 1018.9
20260503205222 68 327 2.0 5.0 0.00 0.00 0.00 40 1018.8
20260503204718 69 268 5.0 8.0 0.00 0.00 0.00 37 1019.2
20260503204217 68 245 3.0 9.0 0.00 0.00 0.00 35 1018.9
20260503203713 69 14 3.0 5.0 0.00 0.00 0.00 40 1018.8
20260503203211 68 252 5.0 8.0 0.00 0.00 0.00 40 1018.9
20260503202708 68 335 2.0 7.0 0.00 0.00 0.00 38 1019.0
20260503202206 68 250 4.0 6.0 0.00 0.00 0.00 38 1018.9
20260503201703 68 329 4.0 7.0 0.00 0.00 0.00 41 1019.2
20260503201201 68 300 2.0 9.0 0.00 0.00 0.00 41 1019.0
20260503200657 68 98 1.0 7.0 0.00 0.00 0.00 41 1019.3
20260503200153 67 315 2.0 6.0 0.00 0.00 0.00 42 1019.4
20260503195650 67 355 2.0 6.0 0.00 0.00 0.00 44 1019.4
20260503195147 67 320 2.0 6.0 0.00 0.00 0.00 45 1019.4
20260503194644 68 351 3.0 8.0 0.00 0.00 0.00 42 1019.5
20260503194140 66 44 0.0 5.0 0.00 0.00 0.00 42 1019.7
20260503193637 67 291 4.0 7.0 0.00 0.00 0.00 40 1019.6
20260503193132 68 8 2.0 9.0 0.00 0.00 0.00 40 1019.8
20260503192628 67 350 4.0 7.0 0.00 0.00 0.00 40 1019.9
20260503192124 68 2 4.0 5.0 0.00 0.00 0.00 39 1020.0
20260503191621 67 36 1.0 7.0 0.00 0.00 0.00 38 1020.1
20260503191118 67 356 2.0 10.0 0.00 0.00 0.00 39 1020.2
20260503190615 66 10 3.0 7.0 0.00 0.00 0.00 42 1020.0
20260503190112 67 283 7.0 10.0 0.00 0.00 0.00 41 1020.2
20260503185608 67 340 7.0 9.0 0.00 0.00 0.00 36 1020.3
20260503185108 67 13 1.0 5.0 0.00 0.00 0.00 39 1020.1
20260503184604 67 334 0.0 3.0 0.00 0.00 0.00 39 1020.3
20260503184101 67 316 4.0 7.0 0.00 0.00 0.00 42 1020.4
20260503183557 67 302 1.0 7.0 0.00 0.00 0.00 40 1020.5
20260503183055 66 295 4.0 8.0 0.00 0.00 0.00 41 1020.4
20260503182553 66 283 5.0 8.0 0.00 0.00 0.00 42 1020.6
20260503182051 66 348 1.0 5.0 0.00 0.00 0.00 44 1020.8
20260503181547 66 61 1.0 3.0 0.00 0.00 0.00 42 1020.7
20260503181044 66 236 2.0 7.0 0.00 0.00 0.00 45 1020.8
20260503180541 66 192 3.0 5.0 0.00 0.00 0.00 41 1021.0
20260503180038 65 278 2.0 7.0 0.00 0.00 0.00 41 1021.0
20260503175536 66 336 6.0 10.0 0.00 0.00 0.00 42 1021.0
20260503175033 65 29 1.0 6.0 0.00 0.00 0.00 42 1021.2